Location: Monrovia
(34.7865°N, 86.7139°W)
Time: 00:50:52
(UTC+00:00)

Lacrosse 5 - Pass Details

Date: 14 July 2020
Orbit: 717 x 720 km, 57.0° (Epoch: 09 August)

Event Time Altitude Azimuth Distance (km) Brightness Sun altitude
Exits shadow 05:08:06 24° 41° (NE) 1,467 3.7 -32.6°
Drops below altitude 10° 05:10:04 10° 41° (NE) 2,201 4.8 -32.7°
Sets 05:12:27 0° 41° (NE) 3,123 5.6 -32.8°
